User: anonymous   Login
Location: *
(34.8620°S, 39.3380°E)
Time: 20:09:20
(UTC+00:00)
Language:

CZ-4C R/B - Orbit

View from above orbital plane
View from above orbital plane
View from above satellite
View from above satellite

Ground track
Ground track

The orbit data is extracted from the following two-line orbital elements,

1 36416U 10009D   21295.45950212 -.00000031  00000-0  33907-4 0  9998
2 36416  63.4180 317.5036 0543183 355.8132   3.8452 13.69605778581705
Epoch (UTC): 22 October 2021 11:01:40
Eccentricity: 0.0543183
inclination: 63.4180°
perigee height: 600 km
apogee height: 1402 km
right ascension of ascending node: 317.5036°
argument of perigee: 355.8132°
revolutions per day: 13.69605778
mean anomaly at epoch: 3.8452°
orbit number at epoch: 58170

The dashed part of the orbit path shows where the satellite is in the earth's shadow,  

DLR